Flugplatz Ellwangen

Für EDPY sind keine METAR/TAF Berichte vorhanden.
Es werden die Flugwettermeldungen vom Flugplatz Adolf Würth in 37 km Entfernung angezeigt.

Bericht für EDTY

vom 07.12. um 18:20 UTC

Wind 6 kt aus 120°

Sichtweite 10 km oder mehr

gute Sicht, keine Wolken < 5000 ft, keine CB, keine Wettererscheinungen (CAVOK)

Temperatur 1.0°C

Taupunkt -1.0°C

Luftfeuchtigkeit 86%

Luftdruck 1008 hPa

EDTY 071820Z 12006KT CAVOK 01/M01 Q1008

Prognose für EDTY

vom 07.12. um 17:00 UTC

Zwischen 18:00 UTC und 03:00 UTC

Wind 4 kt aus 110°

Sichtweite 10 km oder mehr

gering bewölkt in 3500 ft


Am 08.12. zwischen 00:00 UTC und 03:00 UTC zeitweise mit einer Wahrscheinlichkeit von 30%

Code: FZRA


Am 08.12. zwischen 00:00 UTC und 03:00 UTC zeitweise

Sichtweite 4500 m

schwacher Schnee

TAF EDTY 071700Z 0718/0803 11004KT 9999 FEW035 TEMPO 0800/0803 4500 -SN PROB30 TEMPO 0800/0803 -FZRA
Impressum